Starlink 32273

operational
NORAD ID: 61956 Int'l Des: 2024-209 Owner: SPXS Country: US Constellation: starlink
LEOCIRCULAR

About Starlink 32273

Description loading...

Live Position

Loading 3D Globe...

Upcoming Passes

Altitude History

Altitude vs Time

uPlot chart will show altitude changes over time

Two-Line Element Set

1 61956U 24209T 25258.21963342 .00063753 00000-0 21431-2 0 9993
2 61956 53.1560 237.2984 0002454 93.1874 266.9408 15.30246586 48031
Epoch: Sep 15, 2025 • Age: 18 hours

Current Status

Altitude 479.4 km
Velocity 7.63 km/s
Sub-Earth Point 51.59°N, 33.98°W
Launch Date Nov 14, 2024
Age 0.8 years
Type internet

Technical Details

Classification Payload
Mass 730.00 kg
Dry Mass 700.00 kg
Total Mass 730.00 kg
Length 0.30 m
Diameter 4.10 m
Span 29.00 m
Shape Box + pan
Manufacturer SPXS
Bus Type Starlink V2M
Phase Status In Orbit
Owner/State SPXS/US

Large Constellations

Loading constellations...